Find Starlink 5778

NORAD ID: 57149 Int'l Des: 2023-090 Owner: SPXS Country: US Constellation: starlink operational
LEOCIRCULAR

Current View

Loading 3D Globe...

About Starlink 5778

Description loading...

Upcoming Passes

Passes for default location (London). Set your location on the main map for personalized predictions.

Altitude History

Loading altitude history...

Two-Line Element Set

1 57149U 23090BA 26146.33335648 -.00003888 00000-0 -13530-3 0 9998
2 57149 42.9999 170.0621 0001556 281.2061 152.0648 15.26745015 5618
Epoch: May 26, 2026 • Age: 4 hours

Current Status

Altitude 485.2 km
Velocity 7.62 km/s
Sub-Earth Point 3.90°N, 72.72°W
Launch Date Jun 23, 2023
Age 2.9 years
Type internet

Technical Details

Classification Payload
Mass 305.00 kg
Dry Mass 290.00 kg
Total Mass 305.00 kg
Length 0.20 m
Diameter 2.80 m
Span 9.00 m
Shape Box + pan
Manufacturer SPXS
Bus Type Starlink
Phase Status In Orbit
Owner/State SPXS/US

Most Searched